Location: Ottawa
(45.4170°N, 75.7000°W)
Time: 12:57:24
(UTC-04:00)

Amateur Radio Satellites - All Passes

Search period start: 26 March 2017 12:27
Search period end: 27 March 2017 12:27
Location: Ottawa, 45.4170°N, 75.7000°W

Satellite Date Start Highest point End Downlink Frequencies (MHz)
Time Altitude Azimuth
Gurwin Techsat 1B 26 Mar 12:33:57 12:37:15 17° 58° (ENE) 12:40:33 435.225
ESTCUBE 1 26 Mar 12:35:49 12:40:20 74° 103° (ESE) 12:44:51 437.505/2401.250
DUCHIFAT 1 26 Mar 12:39:25 12:43:23 38° 262° (W) 12:47:22 145.980
RS-15 26 Mar 12:40:47 12:51:58 49° 110° (ESE) 13:03:30 29.354- 29.394
50 SAT 26 Mar 12:46:56 12:49:15 16° 93° (E) 12:51:33 437.505
NO-84 26 Mar 12:52:47 12:55:28 27° 25° (NNE) 12:58:19 435.350 FM
BUGSAT 1 26 Mar 12:56:11 13:00:24 71° 257° (WSW) 13:04:41 437.445
SPROUT 26 Mar 12:59:55 13:03:54 36° 97° (E) 13:07:51 437.525
AO-7 26 Mar 13:12:58 13:17:52 17° 43° (NE) 13:22:46 .
LO-87 26 Mar 13:22:57 13:25:05 15° 296° (WNW) 13:27:12 145.935 - 145.965
DX 1 26 Mar 13:27:37 13:31:38 33° 97° (E) 13:35:35 434.975-435.025
NANOSAT C BR1 26 Mar 13:28:12 13:29:48 12° 271° (W) 13:31:24 145.865
VELOX 1 26 Mar 13:49:34 13:54:00 62° 287° (WNW) 13:58:23 145.980
Oscar 19 26 Mar 13:58:54 14:03:56 59° 259° (W) 14:09:01 437.125/150
ITAMSAT 1 26 Mar 14:07:40 14:11:27 21° 60° (ENE) 14:15:14 435.822/435.867
UKube-1 26 Mar 14:07:59 14:12:18 63° 102° (ESE) 14:16:36 .
Gurwin Techsat 1B 26 Mar 14:11:13 14:16:33 80° 256° (WSW) 14:21:55 435.225
ESTCUBE 1 26 Mar 14:14:14 14:16:34 14° 300° (WNW) 14:18:54 437.505/2401.250
50 SAT 26 Mar 14:19:12 14:22:24 33° 289° (WNW) 14:25:34 437.505
NO-84 26 Mar 14:30:04 14:33:08 47° 222° (SW) 14:36:27 435.350 FM
SPROUT 26 Mar 14:36:12 14:39:38 23° 295° (WNW) 14:43:01 437.525
SO-50 26 Mar 14:50:40 14:54:44 30° 116° (ESE) 14:58:46 436.795
RS-15 26 Mar 14:52:14 15:04:14 63° 315° (NW) 15:16:34 29.354- 29.394
AO-7 26 Mar 15:00:54 15:09:03 62° 65° (ENE) 15:17:13 .
DX 1 26 Mar 15:04:01 15:07:41 26° 294° (WNW) 15:11:21 434.975-435.025
BEESAT 26 Mar 15:45:16 15:49:55 50° 100° (E) 15:54:32 436.000
ITAMSAT 1 26 Mar 15:45:17 15:50:27 62° 258° (WSW) 15:55:40 435.822/435.867
UKube-1 26 Mar 15:45:20 15:47:51 15° 299° (WNW) 15:50:21 .
Gurwin Techsat 1B 26 Mar 15:56:13 15:57:20 11° 274° (W) 15:58:27 435.225
ITUPSAT 1 26 Mar 16:01:21 16:06:07 71° 103° (ESE) 16:10:51 437.325
MOZHAYETS 4 26 Mar 16:03:39 16:07:48 34° 96° (E) 16:11:56
SO-50 26 Mar 16:30:45 16:35:06 39° 314° (NW) 16:39:25 436.795
AO-7 26 Mar 16:54:59 17:02:16 33° 264° (W) 17:09:35 .
CUBESAT XI-V 26 Mar 16:55:53 16:59:27 21° 92° (E) 17:03:01 437.345
DOVE 4 26 Mar 16:56:41 17:00:00 19° 61° (ENE) 17:03:26 437.250
RS-15 26 Mar 17:09:10 17:19:53 33° 346° (NNW) 17:30:39 29.354- 29.394
HO-68 26 Mar 17:15:02 17:17:19 12° 44° (NE) 17:19:36 435.675
KKS-1 26 Mar 17:22:09 17:26:30 47° 100° (E) 17:30:49 437.445
YUBILEINY 26 Mar 17:22:57 17:28:51 19° 57° (ENE) 17:34:44 435.215
BEESAT 26 Mar 17:23:49 17:27:21 21° 298° (WNW) 17:30:52 436.000
XW-2F 26 Mar 17:24:33 17:27:15 19° 66° (ENE) 17:29:56 145.980 - 146.000
LilacSat-2 26 Mar 17:25:36 17:28:30 21° 67° (ENE) 17:31:24 437.200
O/OREOS (USA 219) 26 Mar 17:29:36 17:34:05 69° 112° (ESE) 17:38:39 437.305
CUTE-I 26 Mar 17:34:48 17:39:34 33° 65° (ENE) 17:44:20 437.470
ITUPSAT 1 26 Mar 17:40:33 17:43:23 16° 301° (WNW) 17:46:14 437.325
MOZHAYETS 4 26 Mar 17:41:01 17:44:51 27° 294° (WNW) 17:48:40
PCSat 26 Mar 17:41:11 17:45:33 24° 41° (NE) 17:49:53 145.827
NUDT-PHONESAT 26 Mar 17:49:27 17:52:43 29° 69° (ENE) 17:55:58 437.300
XW-2D 26 Mar 17:49:31 17:53:01 36° 71° (ENE) 17:56:32 145.860 - 145.880
XW-2B 26 Mar 17:55:21 17:58:56 41° 72° (ENE) 18:02:32 145.730 - 145.750
KAITUO 1B 26 Mar 17:56:31 17:59:56 34° 71° (ENE) 18:03:21 145.475/437.950
STARS 26 Mar 17:58:30 18:02:49 50° 100° (E) 18:07:06 437.465
XW-2C 26 Mar 18:05:22 18:09:06 55° 73° (ENE) 18:12:50 145.795 - 145.815
SO-50 26 Mar 18:15:38 18:16:49 11° 336° (NNW) 18:18:01 436.795
M-CUBED/EXP-1 PRIME 26 Mar 18:21:56 18:23:52 12° 94° (E) 18:25:48 437.505
CUTE 1.7 + AOD 2 26 Mar 18:25:06 18:27:14 14° 62° (ENE) 18:29:22 437.475
DOVE 4 26 Mar 18:32:30 18:37:09 60° 260° (W) 18:42:07 437.250
CUBESAT XI-V 26 Mar 18:32:36 18:37:02 44° 290° (WNW) 18:41:27 437.345
HO-68 26 Mar 18:56:35 19:03:25 50° 65° (ENE) 19:10:15 435.675
XW-2F 26 Mar 18:57:40 19:01:10 35° 263° (W) 19:04:40 145.980 - 146.000
LilacSat-2 26 Mar 18:59:09 19:02:37 32° 263° (W) 19:06:04 437.200
KKS-1 26 Mar 18:59:27 19:02:45 20° 297° (WNW) 19:06:02 437.445
UWE-3 26 Mar 19:09:44 19:12:11 14° 60° (ENE) 19:14:35 435.000/436.395/437.385
O/OREOS (USA 219) 26 Mar 19:11:03 19:14:02 17° 311° (NW) 19:17:01 437.305
CUTE-I 26 Mar 19:14:34 19:19:31 37° 263° (W) 19:24:31 437.470
YUBILEINY 26 Mar 19:18:27 19:27:12 81° 81° (E) 19:35:56 435.215
NUDT-PHONESAT 26 Mar 19:23:43 19:26:39 22° 266° (W) 19:29:36 437.300
PCSat 26 Mar 19:24:04 19:29:30 73° 242° (WSW) 19:34:54 145.827
XW-2D 26 Mar 19:24:45 19:27:21 17° 268° (W) 19:29:57 145.860 - 145.880
STRAND 1 26 Mar 19:25:13 19:28:43 18° 91° (E) 19:32:13 437.568
RS-15 26 Mar 19:25:58 19:37:04 36° 21° (NNE) 19:47:54 29.354- 29.394
XW-2B 26 Mar 19:30:59 19:33:20 16° 268° (W) 19:35:42 145.730 - 145.750
KAITUO 1B 26 Mar 19:31:27 19:34:04 18° 267° (W) 19:36:41 145.475/437.950
XW-2A 26 Mar 19:34:02 19:37:29 88° 253° (WSW) 19:40:58 145.665 - 145.685
STARS 26 Mar 19:35:42 19:38:47 19° 298° (WNW) 19:41:52 437.465
AAUSAT CUBESAT 2 26 Mar 19:36:36 19:39:55 24° 67° (ENE) 19:43:16 437.432
CUBEBUG 2 26 Mar 19:41:03 19:45:30 41° 70° (ENE) 19:49:57 437.445
XW-2C 26 Mar 19:42:10 19:43:39 12° 270° (W) 19:45:07 145.795 - 145.815
Oscar 11 26 Mar 19:43:18 19:45:20 13° 60° (ENE) 19:47:23 .
ZACube-1 26 Mar 19:49:25 19:52:42 20° 64° (ENE) 19:55:57 437.345
SEEDS 26 Mar 19:51:24 19:55:32 70° 74° (ENE) 19:59:41 437.485
M-CUBED/EXP-1 PRIME 26 Mar 19:54:08 19:58:48 84° 288° (WNW) 20:03:29 437.505
CUTE 1.7 + AOD 2 26 Mar 19:58:23 20:02:33 65° 259° (W) 20:06:45 437.475
AO-73 26 Mar 20:16:53 20:20:55 33° 68° (ENE) 20:24:53 145.935
AO-85 26 Mar 20:33:09 20:36:15 19° 114° (ESE) 20:39:14 145.980
UWE-3 26 Mar 20:43:22 20:48:02 77° 258° (WSW) 20:52:40 435.000/436.395/437.385
HO-68 26 Mar 20:44:53 20:51:19 36° 264° (W) 20:57:48 435.675
DELFI C3 26 Mar 20:55:33 20:58:29 21° 66° (ENE) 21:01:26 145.870
STRAND 1 26 Mar 21:03:16 21:08:19 60° 289° (WNW) 21:13:20 437.568
PCSat 26 Mar 21:11:00 21:11:54 10° 259° (W) 21:12:49 145.827
AAUSAT CUBESAT 2 26 Mar 21:11:37 21:15:16 31° 264° (W) 21:18:57 437.432
Oscar 11 26 Mar 21:16:36 21:20:54 73° 258° (WSW) 21:25:14 .
YUBILEINY 26 Mar 21:16:39 21:22:57 23° 282° (WNW) 21:29:17 435.215
Tancredo 1 26 Mar 21:17:23 21:20:22 40° 144° (SE) 21:23:24 437.200
ISS 26 Mar 21:17:51 21:20:54 37° 142° (SE) 21:23:58 437.550
CUBEBUG 2 26 Mar 21:18:25 21:22:15 24° 267° (W) 21:26:05 437.445
ZACube-1 26 Mar 21:24:15 21:28:39 48° 261° (W) 21:33:01 437.345
M-CUBED/EXP-1 PRIME 26 Mar 21:30:24 21:32:32 13° 307° (NW) 21:34:40 437.505
SEEDS 26 Mar 21:30:26 21:31:41 11° 272° (W) 21:32:58 437.485
RS-15 26 Mar 21:39:35 21:52:00 76° 51° (NE) 22:03:53 29.354- 29.394
SO-50 26 Mar 21:40:17 21:42:17 13° 27° (NNE) 21:44:15 436.795
AO-73 26 Mar 21:53:16 21:57:08 27° 265° (W) 22:00:59 145.935
ESTCUBE 1 26 Mar 22:04:19 22:05:31 11° 57° (ENE) 22:06:44 437.505/2401.250
AO-85 26 Mar 22:12:07 22:16:22 51° 310° (NW) 22:20:22 145.980
PRISM 26 Mar 22:17:24 22:21:16 36° 98° (E) 22:25:08 437.425
LO-87 26 Mar 22:26:52 22:29:51 25° 68° (ENE) 22:32:52 145.935 - 145.965
DELFI C3 26 Mar 22:29:29 22:33:04 34° 263° (W) 22:36:42 145.870
FO-29 26 Mar 22:38:55 22:43:35 23° 89° (E) 22:47:53 435.910
BEESAT 3 26 Mar 22:48:31 22:52:15 44° 119° (ESE) 22:56:04 437.485
Tancredo 1 26 Mar 22:53:31 22:56:31 39° 341° (NNW) 22:59:34 437.200
ISS 26 Mar 22:54:13 22:57:21 43° 340° (NNW) 23:00:31 437.550
TIGRISAT 26 Mar 22:59:03 23:03:21 49° 99° (E) 23:07:33 435.000
BEESAT 2 26 Mar 23:05:02 23:08:25 27° 115° (ESE) 23:11:49 435.950
UNISAT 6 26 Mar 23:09:14 23:13:40 69° 102° (ESE) 23:17:58 437.425
VELOX 1 26 Mar 23:13:55 23:16:53 18° 62° (ENE) 23:19:51 145.980
SO-50 26 Mar 23:19:22 23:23:48 51° 49° (NE) 23:28:10 436.795
ESTCUBE 1 26 Mar 23:37:06 23:41:35 86° 76° (ENE) 23:46:05 437.505/2401.250
EO-79 26 Mar 23:38:19 23:39:49 12° 89° (E) 23:41:18 145.935-145.965
RS-15 26 Mar 23:52:58 00:03:30 36° 255° (WSW) 00:13:40 29.354- 29.394
PRISM 26 Mar 23:53:07 23:56:21 22° 295° (WNW) 23:59:36 437.425
SPROUT 26 Mar 23:55:06 23:59:03 36° 69° (ENE) 00:03:01 437.525
AO-85 26 Mar 23:56:37 23:57:39 11° 330° (NNW) 23:58:40 145.980
LO-87 27 Mar 00:00:20 00:03:16 23° 265° (W) 00:06:14 145.935 - 145.965
POLYITAN 1 27 Mar 00:04:59 00:08:22 23° 94° (E) 00:11:42 437.675
QB50P2 27 Mar 00:09:26 00:13:04 27° 95° (E) 00:16:40 145.880/145.840
DUCHIFAT 1 27 Mar 00:21:11 00:24:49 27° 95° (E) 00:28:25 145.980
FO-29 27 Mar 00:23:13 00:29:12 55° 291° (WNW) 00:34:31 435.910
DX 1 27 Mar 00:24:59 00:28:59 38° 69° (ENE) 00:33:03 434.975-435.025
BEESAT 3 27 Mar 00:26:50 00:30:03 23° 319° (NW) 00:33:18 437.485
Tancredo 1 27 Mar 00:30:28 00:33:12 25° 2° (N) 00:35:56 437.200
ISS 27 Mar 00:31:31 00:34:21 26° 1° (N) 00:37:13 437.550
TIGRISAT 27 Mar 00:36:36 00:39:40 19° 298° (WNW) 00:42:42 435.000
BUGSAT 1 27 Mar 00:37:11 00:39:29 14° 90° (E) 00:41:45 437.445
AIST 2D 27 Mar 00:37:23 00:40:54 80° 286° (WNW) 00:44:22 435.315
BEESAT 2 27 Mar 00:42:26 00:46:04 34° 314° (NW) 00:49:48 435.950
UNISAT 6 27 Mar 00:47:26 00:49:48 14° 300° (WNW) 00:52:08 437.425
VELOX 1 27 Mar 00:48:37 00:52:56 53° 260° (W) 00:57:18 145.980
50 SAT 27 Mar 00:54:11 00:57:36 62° 259° (WSW) 01:01:03 437.505
SO-50 27 Mar 01:00:31 01:03:55 21° 247° (WSW) 01:07:19 436.795
UKube-1 27 Mar 01:04:09 01:08:26 70° 73° (ENE) 01:12:44 .
NANOSAT C BR1 27 Mar 01:07:01 01:11:17 85° 282° (WNW) 01:15:29 145.865
EO-79 27 Mar 01:11:50 01:16:03 70° 287° (WNW) 01:20:15 145.935-145.965
ESTCUBE 1 27 Mar 01:18:35 01:19:00 10° 273° (W) 01:19:26 437.505/2401.250
BEESAT 27 Mar 01:20:10 01:21:18 11° 55° (NE) 01:22:25 436.000
SPROUT 27 Mar 01:31:39 01:35:03 23° 266° (W) 01:38:29 437.525
ITUPSAT 1 27 Mar 01:34:57 01:37:34 15° 58° (ENE) 01:40:10 437.325
POLYITAN 1 27 Mar 01:40:22 01:44:14 35° 291° (WNW) 01:48:04 437.675
QB50P2 27 Mar 01:45:08 01:48:51 30° 292° (WNW) 01:52:31 145.880/145.840
DUCHIFAT 1 27 Mar 01:56:48 02:00:28 29° 293° (WNW) 02:04:04 145.980
O/OREOS (USA 219) 27 Mar 01:58:38 02:02:26 25° 54° (NE) 02:06:14 437.305
DX 1 27 Mar 02:01:54 02:05:18 22° 266° (W) 02:08:45 434.975-435.025
Tancredo 1 27 Mar 02:06:42 02:09:49 47° 21° (NNE) 02:12:56 437.200
Oscar 19 27 Mar 02:08:08 02:13:01 41° 98° (E) 02:17:53 437.125/150
ISS 27 Mar 02:08:09 02:11:20 45° 20° (NNE) 02:14:32 437.550
BUGSAT 1 27 Mar 02:11:05 02:15:12 55° 288° (WNW) 02:19:14 437.445
FO-29 27 Mar 02:12:20 02:12:43 10° 314° (NW) 02:13:05 435.910
Gurwin Techsat 1B 27 Mar 02:25:27 02:30:17 34° 96° (E) 02:35:06 435.225
UKube-1 27 Mar 02:43:12 02:44:56 12° 271° (W) 02:46:40 .
BEESAT 27 Mar 02:53:28 02:58:14 75° 74° (ENE) 03:03:01 436.000
AO-7 27 Mar 03:02:04 03:06:36 15° 87° (E) 03:11:05 .
MOZHAYETS 4 27 Mar 03:07:19 03:11:39 42° 70° (ENE) 03:15:58
ITUPSAT 1 27 Mar 03:09:58 03:14:45 79° 256° (WSW) 03:19:35 437.325
O/OREOS (USA 219) 27 Mar 03:37:40 03:42:01 42° 253° (WSW) 03:46:21 437.305
Tancredo 1 27 Mar 03:43:00 03:45:52 30° 219° (SW) 03:48:44 437.200
ISS 27 Mar 03:44:44 03:47:46 34° 219° (SW) 03:50:47 437.550
Oscar 19 27 Mar 03:47:47 03:52:10 29° 296° (WNW) 03:56:34 437.125/150
ITAMSAT 1 27 Mar 03:55:59 04:00:51 39° 98° (E) 04:05:40 435.822/435.867
CUBESAT XI-V 27 Mar 04:01:12 04:05:02 27° 66° (ENE) 04:08:53 437.345
Gurwin Techsat 1B 27 Mar 04:05:25 04:10:13 35° 294° (WNW) 04:14:58 435.225
KKS-1 27 Mar 04:21:55 04:26:17 57° 72° (ENE) 04:30:42 437.445
BEESAT 27 Mar 04:34:16 04:36:33 13° 271° (W) 04:38:51 436.000
MOZHAYETS 4 27 Mar 04:45:24 04:48:58 22° 267° (W) 04:52:33
AO-7 27 Mar 04:52:24 05:00:45 75° 107° (ESE) 05:09:02 .
STARS 27 Mar 04:56:45 05:01:06 59° 72° (ENE) 05:05:29 437.465
AO-85 27 Mar 05:01:03 05:04:34 30° 45° (NE) 05:08:06 145.980
M-CUBED/EXP-1 PRIME 27 Mar 05:09:19 05:12:00 18° 56° (ENE) 05:14:49 437.505
BEESAT 3 27 Mar 05:27:21 05:28:39 11° 30° (NNE) 05:29:56 437.485
ITAMSAT 1 27 Mar 05:35:42 05:40:12 30° 296° (WNW) 05:44:40 435.822/435.867
CUBESAT XI-V 27 Mar 05:38:05 05:42:16 35° 264° (W) 05:46:30 437.345
KKS-1 27 Mar 06:00:28 06:03:12 16° 269° (W) 06:05:58 437.445
XW-2F 27 Mar 06:28:05 06:30:47 19° 93° (E) 06:33:28 145.980 - 146.000
DOVE 4 27 Mar 06:28:59 06:33:53 36° 95° (E) 06:38:40 437.250
YUBILEINY 27 Mar 06:29:14 06:34:45 19° 76° (ENE) 06:40:14 435.215
LilacSat-2 27 Mar 06:30:17 06:33:14 21° 94° (E) 06:36:11 437.200
STARS 27 Mar 06:35:16 06:37:50 15° 270° (W) 06:40:24 437.465
AO-85 27 Mar 06:41:27 06:44:53 29° 243° (WSW) 06:48:25 145.980
M-CUBED/EXP-1 PRIME 27 Mar 06:42:31 06:46:05 44° 256° (WSW) 06:49:58 437.505
STRAND 1 27 Mar 06:42:45 06:47:20 34° 66° (ENE) 06:51:56 437.568
AO-7 27 Mar 06:45:59 06:52:50 30° 307° (NW) 06:59:40 .
NUDT-PHONESAT 27 Mar 06:51:25 06:54:39 28° 96° (E) 06:57:51 437.300
XW-2D 27 Mar 06:53:46 06:57:19 39° 98° (E) 07:00:50 145.860 - 145.880
KAITUO 1B 27 Mar 06:59:18 07:02:44 35° 97° (E) 07:06:09 145.475/437.950
XW-2B 27 Mar 06:59:40 07:03:17 44° 99° (E) 07:06:53 145.730 - 145.750
BEESAT 3 27 Mar 07:03:10 07:07:08 54° 50° (NE) 07:11:04 437.485
XW-2C 27 Mar 07:09:48 07:13:32 61° 101° (E) 07:17:14 145.795 - 145.815
BEESAT 2 27 Mar 07:20:10 07:23:57 36° 46° (NE) 07:27:42 435.950
NO-84 27 Mar 07:27:05 07:29:53 57° 140° (SE) 07:32:42 435.350 FM
CUTE-I 27 Mar 07:28:45 07:34:08 75° 103° (ESE) 07:39:27 437.470
CUTE 1.7 + AOD 2 27 Mar 07:41:46 07:44:43 18° 92° (E) 07:47:40 437.475
XW-2F 27 Mar 08:01:39 08:05:01 32° 290° (WNW) 08:08:22 145.980 - 146.000
LilacSat-2 27 Mar 08:04:15 08:07:33 29° 291° (WNW) 08:10:49 437.200
DOVE 4 27 Mar 08:06:43 08:11:28 34° 293° (WNW) 08:16:10 437.250
HO-68 27 Mar 08:09:10 08:15:55 42° 98° (E) 08:22:37 435.675
YUBILEINY 27 Mar 08:21:26 08:30:12 86° 96° (E) 08:38:58 435.215
STRAND 1 27 Mar 08:21:49 08:26:28 34° 263° (W) 08:31:09 437.568
NUDT-PHONESAT 27 Mar 08:25:36 08:28:26 21° 293° (WNW) 08:31:16 437.300
XW-2A 27 Mar 08:26:34 08:29:58 71° 101° (ESE) 08:33:19 145.665 - 145.685
XW-2D 27 Mar 08:28:46 08:31:13 17° 295° (WNW) 08:33:40 145.860 - 145.880
UWE-3 27 Mar 08:31:58 08:34:55 18° 91° (E) 08:37:50 435.000/436.395/437.385
KAITUO 1B 27 Mar 08:33:58 08:36:31 18° 294° (WNW) 08:39:02 145.475/437.950
XW-2B 27 Mar 08:34:56 08:37:08 15° 296° (WNW) 08:39:20 145.730 - 145.750
UNISAT 6 27 Mar 08:37:07 08:38:09 11° 57° (ENE) 08:39:11 437.425
BEESAT 3 27 Mar 08:41:47 08:44:20 16° 249° (WSW) 08:46:53 437.485
XW-2C 27 Mar 08:45:50 08:47:15 12° 298° (WNW) 08:48:40 145.795 - 145.815
AAUSAT CUBESAT 2 27 Mar 08:51:02 08:54:47 32° 96° (E) 08:58:32 437.432
FO-29 27 Mar 08:53:03 08:58:15 20° 56° (NE) 09:03:12 435.910
BEESAT 2 27 Mar 08:58:11 09:01:36 26° 245° (WSW) 09:04:59 435.950
Oscar 11 27 Mar 09:02:28 09:05:24 18° 91° (E) 09:08:19 .
NO-84 27 Mar 09:05:20 09:07:37 21° 339° (NNW) 09:09:57 435.350 FM
CUBEBUG 2 27 Mar 09:06:07 09:10:33 66° 102° (ESE) 09:14:47 437.445
SEEDS 27 Mar 09:08:22 09:12:35 80° 284° (WNW) 09:16:47 437.485
PRISM 27 Mar 09:08:39 09:12:19 34° 69° (ENE) 09:16:03 437.425
CUTE-I 27 Mar 09:10:03 09:13:35 18° 302° (WNW) 09:17:05 437.470
ZACube-1 27 Mar 09:10:43 09:14:19 26° 94° (E) 09:17:50 437.345
CUTE 1.7 + AOD 2 27 Mar 09:16:46 09:20:45 43° 289° (WNW) 09:24:46 437.475
AO-73 27 Mar 09:38:23 09:42:29 47° 99° (E) 09:46:28 145.935
HO-68 27 Mar 09:56:58 10:03:37 43° 297° (WNW) 10:10:17 435.675
TIGRISAT 27 Mar 09:59:04 10:03:40 57° 72° (ENE) 10:08:14 435.000
DELFI C3 27 Mar 10:04:19 10:07:36 24° 94° (E) 10:10:52 145.870
PCSat 27 Mar 10:07:26 10:12:48 68° 118° (ESE) 10:18:13 145.827
UWE-3 27 Mar 10:07:31 10:11:39 44° 289° (WNW) 10:15:40 435.000/436.395/437.385
UNISAT 6 27 Mar 10:09:22 10:14:04 78° 74° (ENE) 10:18:44 437.425
YUBILEINY 27 Mar 10:21:35 10:28:12 23° 299° (WNW) 10:34:51 435.215
AAUSAT CUBESAT 2 27 Mar 10:26:45 10:30:06 24° 293° (WNW) 10:33:27 437.432
NANOSAT C BR1 27 Mar 10:28:44 10:29:51 11° 58° (ENE) 10:30:58 145.865
EO-79 27 Mar 10:32:49 10:34:50 13° 60° (ENE) 10:36:50 145.935-145.965
FO-29 27 Mar 10:34:34 10:42:23 83° 74° (ENE) 10:49:40 435.910
Oscar 11 27 Mar 10:37:39 10:41:47 46° 289° (WNW) 10:45:53 .
CUBEBUG 2 27 Mar 10:44:12 10:46:35 14° 300° (WNW) 10:48:56 437.445
NO-84 27 Mar 10:44:31 10:46:01 13° 1° (N) 10:47:35 435.350 FM
PRISM 27 Mar 10:44:32 10:47:42 22° 266° (W) 10:50:53 437.425
ZACube-1 27 Mar 10:46:54 10:50:36 29° 292° (WNW) 10:54:13 437.345
POLYITAN 1 27 Mar 10:59:31 11:02:57 24° 66° (ENE) 11:06:24 437.675
QB50P2 27 Mar 11:03:56 11:07:34 28° 67° (ENE) 11:11:14 145.880/145.840
AIST 2D 27 Mar 11:13:34 11:16:58 47° 73° (ENE) 11:20:23 435.315
DUCHIFAT 1 27 Mar 11:14:52 11:18:30 28° 67° (ENE) 11:22:08 145.980
AO-73 27 Mar 11:15:32 11:18:21 18° 297° (WNW) 11:21:09 145.935
LO-87 27 Mar 11:24:53 11:27:50 23° 94° (E) 11:30:45 145.935 - 145.965
ESTCUBE 1 27 Mar 11:28:32 11:31:14 16° 90° (E) 11:33:56 437.505/2401.250
BUGSAT 1 27 Mar 11:29:04 11:31:30 15° 61° (ENE) 11:33:56 437.445
TIGRISAT 27 Mar 11:37:37 11:40:40 17° 269° (W) 11:43:44 435.000
DELFI C3 27 Mar 11:38:55 11:42:23 29° 291° (WNW) 11:45:53 145.870
UNISAT 6 27 Mar 11:49:18 11:51:17 13° 272° (W) 11:53:17 437.425
Oscar 19 27 Mar 11:52:00 11:53:41 12° 54° (NE) 11:55:23 437.125/150
PCSat 27 Mar 11:52:16 11:56:42 25° 319° (NW) 12:01:09 145.827
NANOSAT C BR1 27 Mar 12:00:37 12:04:53 89° 271° (W) 12:09:11 145.865
EO-79 27 Mar 12:05:45 12:10:02 73° 259° (WSW) 12:14:19 145.935-145.965
Gurwin Techsat 1B 27 Mar 12:13:18 12:14:49 11° 53° (NE) 12:16:19 435.225
NO-84 27 Mar 12:21:50 12:24:23 24° 23° (NNE) 12:27:04 435.350 FM
